Sigfox identifier Datetime Temperature Humidity SNR
003B6CA5 2018-10-09 08:53:55 20.1 39 16.1
003B6CA5 2018-10-09 07:48:20 20.1 39 15.7
003B6CA5 2018-10-09 06:42:45 20.1 39 15.7
003B6CA5 2018-10-09 05:37:14 20.1 39 15.2
003B6CA5 2018-10-09 01:15:06 20.1 39 13.6
003B6CA5 2018-10-09 00:09:34 20.1 39 13.6
003B6CA5 2018-10-08 23:04:03 20.1 39 12.9
003B6CA5 2018-10-08 21:58:25 20 39 12.5
003B6CA5 2018-10-08 20:52:50 19.9 39 12.4
003B6CA5 2018-10-08 19:47:17 19.9 39 11.7
003B6CA5 2018-10-08 18:41:42 19.9 39 10.2
003B6CA5 2018-10-08 17:36:07 19.9 38 10
003B6CA5 2018-10-08 16:30:31 19.9 38 9.9
003B6CA5 2018-10-08 15:24:53 20 38 10
003B6CA5 2018-10-08 14:19:19 20.1 38 10
003B6CA5 2018-10-08 13:13:48 20.3 38 10
003B6CA5 2018-10-08 12:08:14 20.3 38 8.9
003B6CA5 2018-10-08 08:51:37 20.3 38 8.5
003B6CA5 2018-10-08 06:40:27 20.5 38 8.3
003B6CA5 2018-10-08 03:23:46 20.5 39 8.3
003B6CA5 2018-10-08 02:18:08 20.5 39 8.5
003B6CA5 2018-10-08 01:12:32 20.5 39 8.4
003B6CA5 2018-10-07 23:01:16 20.5 39 8.5
003B6CA5 2018-10-07 21:55:40 20.5 40 8.6
003B6CA5 2018-10-07 20:50:04 20.5 40 8.5
003B6CA5 2018-10-07 19:44:27 20.5 40 8.6
003B6CA5 2018-10-07 18:38:54 20.5 40 8.4
003B6CA5 2018-10-07 17:33:13 20.5 40 8.5
003B6CA5 2018-10-07 16:27:39 20.6 40 8.4
003B6CA5 2018-10-07 15:21:58 20.6 40 8.4
003B6CA5 2018-10-07 14:16:18 20.6 40 8.4
003B6CA5 2018-10-07 13:10:40 20.7 40 8.5
003B6CA5 2018-10-07 12:05:02 20.7 40 16.7
003B6CA5 2018-10-07 10:59:20 20.7 40 16.9
003B6CA5 2018-10-07 08:48:05 20.7 40 17
003B6CA5 2018-10-07 07:42:28 20.7 40 17.2
003B6CA5 2018-10-07 06:36:51 20.7 40 17.4
003B6CA5 2018-10-07 05:31:15 20.7 40 17.6
003B6CA5 2018-10-07 04:25:35 20.7 40 17.8
003B6CA5 2018-10-07 02:14:18 20.8 41 18
003B6CA5 2018-10-07 01:08:41 20.8 41 18.2
003B6CA5 2018-10-06 22:57:23 20.8 41 18.4
003B6CA5 2018-10-06 21:51:47 20.8 41 18.7
003B6CA5 2018-10-06 17:29:21 20.9 41 19
003B6CA5 2018-10-06 16:23:42 21 41 19.3
003B6CA5 2018-10-06 15:18:05 21 41 19.6
003B6CA5 2018-10-06 14:12:25 21 41 19.9
003B6CA5 2018-10-06 08:44:15 21 42 20.3
003B6CA5 2018-10-06 07:38:41 20.9 42 20.7
003B6CA5 2018-10-06 05:27:29 21 42 21.2
003B6CA5 2018-10-06 04:21:54 21.1 43 21.8
003B6CA5 2018-10-06 01:04:58 21.1 43 22.4
003B6CA5 2018-10-05 23:59:21 21.1 43 23.2
003B6CA5 2018-10-05 21:48:13 21.2 44 24.1
003B6CA5 2018-10-05 20:42:34 21.3 44 25.3
003B6CA5 2018-10-05 19:36:55 21.4 44 27.1
003B6CA5 2018-10-05 18:31:23 21.4 45 30
003B6CA5 2018-10-05 16:20:07 21.6 46 0